Time,TemperatureF,DewpointF,PressureIn,WindDirection,WindDirectionDegrees,WindSpeedMPH,WindSpeedGustMPH,Humidity,HourlyPrecipIn,Conditions,Clouds,dailyrainin,SoftwareType,DateUTC
2013-05-27 00:01:00,51.6,33.1,30.13,North,0,0.0,0.0,49,0.00,,,0.00,WUHU21623XXSP,2013-05-27 07:01:00,
2013-05-27 00:06:00,51.4,32.9,30.13,North,0,0.0,0.0,49,0.00,,,0.00,WUHU21623XXSP,2013-05-27 07:06:00,
2013-05-27 00:11:00,51.3,32.2,30.13,NNE,22,0.0,0.0,48,0.00,,,0.00,WUHU21623XXSP,2013-05-27 07:11:00,
2013-05-27 00:16:00,51.1,31.5,30.13,WNW,292,1.1,1.1,47,0.00,,,0.00,WUHU21623XXSP,2013-05-27 07:16:00,
2013-05-27 00:21:00,50.9,31.3,30.13,WNW,292,0.0,1.1,47,0.00,,,0.00,WUHU21623XXSP,2013-05-27 07:21:00,
2013-05-27 00:26:00,50.9,31.2,30.13,NNW,337,0.0,0.0,47,0.00,,,0.00,WUHU21623XXSP,2013-05-27 07:26:00,
2013-05-27 00:31:00,50.7,31.2,30.12,North,0,3.1,3.1,47,0.00,,,0.00,WUHU21623XXSP,2013-05-27 07:31:00,
2013-05-27 00:36:00,50.7,31.2,30.13,NNE,22,0.0,3.1,47,0.00,,,0.00,WUHU21623XXSP,2013-05-27 07:36:00,
2013-05-27 00:44:00,50.5,31.0,30.13,North,0,0.0,0.0,47,0.00,,,0.00,WUHU21623XXSP,2013-05-27 07:44:00,
2013-05-27 00:51:00,50.5,31.0,30.12,WNW,292,0.0,0.0,46,0.00,,,0.00,WUHU21623XXSP,2013-05-27 07:51:00,
2013-05-27 00:56:00,50.4,30.3,30.13,East,90,0.0,0.0,46,0.00,,,0.00,WUHU21623XXSP,2013-05-27 07:56:00,
2013-05-27 01:01:00,50.4,30.3,30.13,SW,225,6.9,6.9,46,0.00,,,0.00,WUHU21623XXSP,2013-05-27 08:01:00,
2013-05-27 01:06:00,49.1,29.2,30.13,SW,225,0.0,6.9,46,0.00,,,0.00,WUHU21623XXSP,2013-05-27 08:06:00,
2013-05-27 01:12:00,48.7,28.7,30.13,SSW,202,0.0,0.0,46,0.00,,,0.00,WUHU21623XXSP,2013-05-27 08:12:00,
2013-05-27 01:17:00,48.4,27.8,30.13,South,180,0.0,0.0,45,0.00,,,0.00,WUHU21623XXSP,2013-05-27 08:17:00,
2013-05-27 01:22:00,48.0,28.1,30.13,NW,315,0.0,0.0,46,0.00,,,0.00,WUHU21623XXSP,2013-05-27 08:22:00,
2013-05-27 01:27:00,47.5,27.6,30.13,SE,135,0.0,0.0,46,0.00,,,0.00,WUHU21623XXSP,2013-05-27 08:27:00,
2013-05-27 01:32:00,46.9,27.1,30.13,ESE,112,0.0,0.0,46,0.00,,,0.00,WUHU21623XXSP,2013-05-27 08:32:00,
2013-05-27 01:38:00,46.4,27.1,30.13,NNW,337,0.0,0.0,47,0.00,,,0.00,WUHU21623XXSP,2013-05-27 08:38:00,
2013-05-27 01:43:00,46.2,27.0,30.13,NW,315,0.0,0.0,47,0.00,,,0.00,WUHU21623XXSP,2013-05-27 08:43:00,
2013-05-27 01:48:00,46.0,27.4,30.12,ESE,112,0.0,0.0,48,0.00,,,0.00,WUHU21623XXSP,2013-05-27 08:48:00,
2013-05-27 01:53:00,45.5,26.9,30.12,NE,45,0.0,0.0,48,0.00,,,0.00,WUHU21623XXSP,2013-05-27 08:53:00,
2013-05-27 01:58:00,45.3,26.7,30.12,NE,45,0.0,0.0,48,0.00,,,0.00,WUHU21623XXSP,2013-05-27 08:58:00,
2013-05-27 02:03:00,45.1,26.5,30.13,WSW,247,0.0,0.0,48,0.00,,,0.00,WUHU21623XXSP,2013-05-27 09:03:00,
2013-05-27 02:08:00,45.0,26.4,30.12,ENE,67,0.0,0.0,48,0.00,,,0.00,WUHU21623XXSP,2013-05-27 09:08:00,
2013-05-27 02:13:00,44.8,26.2,30.12,North,0,0.0,0.0,48,0.00,,,0.00,WUHU21623XXSP,2013-05-27 09:13:00,
2013-05-27 02:18:00,44.4,26.6,30.12,WSW,247,0.0,0.0,49,0.00,,,0.00,WUHU21623XXSP,2013-05-27 09:18:00,
2013-05-27 02:25:00,44.4,26.4,30.12,NW,315,0.0,0.0,49,0.00,,,0.00,WUHU21623XXSP,2013-05-27 09:25:00,
2013-05-27 02:31:00,44.2,26.3,30.12,WNW,292,0.0,0.0,49,0.00,,,0.00,WUHU21623XXSP,2013-05-27 09:31:00,
2013-05-27 02:40:00,43.7,25.8,30.12,SE,135,0.0,0.0,49,0.00,,,0.00,WUHU21623XXSP,2013-05-27 09:40:00,
2013-05-27 02:46:00,43.3,25.5,30.12,SE,135,0.0,0.0,49,0.00,,,0.00,WUHU21623XXSP,2013-05-27 09:46:00,
2013-05-27 02:51:00,43.2,25.3,30.11,ESE,112,0.0,0.0,49,0.00,,,0.00,WUHU21623XXSP,2013-05-27 09:51:00,
2013-05-27 02:57:00,42.6,25.3,30.11,SE,135,0.0,0.0,50,0.00,,,0.00,WUHU21623XXSP,2013-05-27 09:57:00,
2013-05-27 03:02:00,42.4,25.2,30.12,SSE,157,0.0,0.0,50,0.00,,,0.00,WUHU21623XXSP,2013-05-27 10:02:00,
2013-05-27 03:07:00,42.1,24.8,30.12,SSE,157,0.0,0.0,50,0.00,,,0.00,WUHU21623XXSP,2013-05-27 10:07:00,
2013-05-27 03:14:00,41.5,24.4,30.11,SSE,157,0.0,0.0,50,0.00,,,0.00,WUHU21623XXSP,2013-05-27 10:14:00,
2013-05-27 03:19:00,41.5,24.3,30.11,SSE,157,0.0,0.0,50,0.00,,,0.00,WUHU21623XXSP,2013-05-27 10:19:00,
2013-05-27 03:25:00,41.2,23.9,30.11,SSE,157,0.0,0.0,50,0.00,,,0.00,WUHU21623XXSP,2013-05-27 10:25:00,
2013-05-27 03:30:00,41.0,24.2,30.11,SSE,157,0.0,0.0,51,0.00,,,0.00,WUHU21623XXSP,2013-05-27 10:30:00,
2013-05-27 03:40:00,40.3,23.5,30.11,SSW,202,0.0,0.0,51,0.00,,,0.00,WUHU21623XXSP,2013-05-27 10:40:00,
2013-05-27 03:46:00,39.9,23.6,30.11,SSW,202,0.0,0.0,52,0.00,,,0.00,WUHU21623XXSP,2013-05-27 10:46:00,
2013-05-27 03:51:00,39.9,23.6,30.11,SSW,202,0.0,0.0,52,0.00,,,0.00,WUHU21623XXSP,2013-05-27 10:51:00,
2013-05-27 03:56:00,39.9,23.6,30.11,SSW,202,0.0,0.0,52,0.00,,,0.00,WUHU21623XXSP,2013-05-27 10:56:00,
2013-05-27 04:01:00,39.7,23.4,30.11,SSW,202,0.0,0.0,52,0.00,,,0.00,WUHU21623XXSP,2013-05-27 11:01:00,
2013-05-27 04:07:00,39.6,23.3,30.11,SSE,157,0.0,0.0,52,0.00,,,0.00,WUHU21623XXSP,2013-05-27 11:07:00,
2013-05-27 04:14:00,39.6,23.7,30.10,WNW,292,0.0,0.0,53,0.00,,,0.00,WUHU21623XXSP,2013-05-27 11:14:00,
2013-05-27 04:19:00,39.4,23.6,30.10,SW,225,0.0,0.0,53,0.00,,,0.00,WUHU21623XXSP,2013-05-27 11:19:00,
2013-05-27 04:25:00,39.4,23.6,30.10,SW,225,0.0,0.0,53,0.00,,,0.00,WUHU21623XXSP,2013-05-27 11:25:00,
2013-05-27 04:31:00,39.0,23.2,30.10,WSW,247,0.0,0.0,53,0.00,,,0.00,WUHU21623XXSP,2013-05-27 11:31:00,
2013-05-27 04:42:00,38.8,23.5,30.10,WSW,247,0.0,0.0,54,0.00,,,0.00,WUHU21623XXSP,2013-05-27 11:42:00,
2013-05-27 04:51:00,38.5,22.7,30.10,WSW,247,0.0,0.0,53,0.00,,,0.00,WUHU21623XXSP,2013-05-27 11:51:00,
2013-05-27 04:57:00,38.3,23.0,30.10,WSW,247,0.0,0.0,54,0.00,,,0.00,WUHU21623XXSP,2013-05-27 11:57:00,
2013-05-27 05:02:00,38.1,22.9,30.10,WSW,247,0.0,0.0,54,0.00,,,0.00,WUHU21623XXSP,2013-05-27 12:02:00,
2013-05-27 05:07:00,37.9,22.7,30.09,SSE,157,0.0,0.0,54,0.00,,,0.00,WUHU21623XXSP,2013-05-27 12:07:00,
2013-05-27 05:12:00,37.9,22.7,30.09,WNW,292,0.0,0.0,54,0.00,,,0.00,WUHU21623XXSP,2013-05-27 12:12:00,
2013-05-27 05:17:00,37.8,22.5,30.09,SW,225,0.0,0.0,54,0.00,,,0.00,WUHU21623XXSP,2013-05-27 12:17:00,
2013-05-27 05:33:00,37.2,22.5,30.09,WSW,247,0.0,0.0,55,0.00,,,0.00,WUHU21623XXSP,2013-05-27 12:33:00,
2013-05-27 05:40:00,37.2,22.5,30.09,NW,315,0.0,0.0,55,0.00,,,0.00,WUHU21623XXSP,2013-05-27 12:40:00,
2013-05-27 05:46:00,37.0,22.7,30.09,WSW,247,0.0,0.0,56,0.00,,,0.00,WUHU21623XXSP,2013-05-27 12:46:00,
2013-05-27 05:51:00,37.2,22.9,30.09,SW,225,0.0,0.0,56,0.00,,,0.00,WUHU21623XXSP,2013-05-27 12:51:00,
2013-05-27 05:57:00,37.0,22.7,30.10,SW,225,0.0,0.0,56,0.00,,,0.00,WUHU21623XXSP,2013-05-27 12:57:00,
2013-05-27 06:02:00,37.0,22.7,30.10,SW,225,0.0,0.0,56,0.00,,,0.00,WUHU21623XXSP,2013-05-27 13:02:00,
2013-05-27 06:07:00,37.2,22.9,30.09,NNE,22,0.0,0.0,56,0.00,,,0.00,WUHU21623XXSP,2013-05-27 13:07:00,
2013-05-27 06:16:00,37.2,23.3,30.09,South,180,0.0,0.0,57,0.00,,,0.00,WUHU21623XXSP,2013-05-27 13:16:00,
2013-05-27 06:21:00,37.4,23.5,30.09,South,180,0.0,0.0,57,0.00,,,0.00,WUHU21623XXSP,2013-05-27 13:21:00,
2013-05-27 06:29:00,37.6,23.7,30.09,South,180,0.0,0.0,57,0.00,,,0.00,WUHU21623XXSP,2013-05-27 13:29:00,
2013-05-27 06:37:00,37.9,24.4,30.09,SSE,157,0.0,0.0,58,0.00,,,0.00,WUHU21623XXSP,2013-05-27 13:37:00,
2013-05-27 06:44:00,37.9,24.4,30.09,SSE,157,0.0,0.0,58,0.00,,,0.00,WUHU21623XXSP,2013-05-27 13:44:00,
2013-05-27 06:52:00,38.3,24.7,30.09,South,180,0.0,0.0,58,0.00,,,0.00,WUHU21623XXSP,2013-05-27 13:52:00,
2013-05-27 06:57:00,38.5,24.9,30.09,SSE,157,0.0,0.0,58,0.00,,,0.00,WUHU21623XXSP,2013-05-27 13:57:00,
2013-05-27 07:02:00,38.5,24.9,30.09,SSE,157,0.0,0.0,58,0.00,,,0.00,WUHU21623XXSP,2013-05-27 14:02:00,
2013-05-27 07:07:00,38.8,25.2,30.09,SW,225,0.0,0.0,58,0.00,,,0.00,WUHU21623XXSP,2013-05-27 14:07:00,
2013-05-27 07:14:00,39.4,25.7,30.09,SSW,202,0.0,0.0,58,0.00,,,0.00,WUHU21623XXSP,2013-05-27 14:14:00,
2013-05-27 07:22:00,39.9,26.3,30.09,WNW,292,0.0,0.0,58,0.00,,,0.00,WUHU21623XXSP,2013-05-27 14:22:00,
2013-05-27 07:42:00,42.1,28.6,30.08,SW,225,0.0,0.0,59,0.00,,,0.00,WUHU21623XXSP,2013-05-27 14:42:00,
2013-05-27 07:47:00,42.4,29.1,30.08,South,180,0.0,0.0,59,0.00,,,0.00,WUHU21623XXSP,2013-05-27 14:47:00,
2013-05-27 07:57:00,43.3,29.9,30.08,SSE,157,0.0,0.0,59,0.00,,,0.00,WUHU21623XXSP,2013-05-27 14:57:00,
2013-05-27 08:05:00,44.1,30.2,30.08,South,180,3.1,3.1,58,0.00,,,0.00,WUHU21623XXSP,2013-05-27 15:05:00,
2013-05-27 08:10:00,44.2,30.4,30.09,SSE,157,0.0,3.1,58,0.00,,,0.00,WUHU21623XXSP,2013-05-27 15:10:00,
2013-05-27 08:15:00,44.4,30.6,30.08,NNE,22,0.0,0.0,58,0.00,,,0.00,WUHU21623XXSP,2013-05-27 15:15:00,
2013-05-27 08:20:00,44.8,30.9,30.08,SW,225,0.0,0.0,58,0.00,,,0.00,WUHU21623XXSP,2013-05-27 15:20:00,
2013-05-27 08:25:00,45.0,30.6,30.08,SSW,202,0.0,0.0,57,0.00,,,0.00,WUHU21623XXSP,2013-05-27 15:25:00,
2013-05-27 08:31:00,45.5,31.1,30.08,NNW,337,0.0,0.0,57,0.00,,,0.00,WUHU21623XXSP,2013-05-27 15:31:00,
2013-05-27 08:54:00,47.1,31.7,30.07,WNW,292,0.0,0.0,55,0.00,,,0.00,WUHU21623XXSP,2013-05-27 15:54:00,
2013-05-27 09:18:00,49.3,32.8,30.07,East,90,0.0,0.0,53,0.00,,,0.00,WUHU21623XXSP,2013-05-27 16:18:00,
2013-05-27 09:26:00,50.2,33.2,30.08,WNW,292,0.0,0.0,51,0.00,,,0.00,WUHU21623XXSP,2013-05-27 16:26:00,
2013-05-27 09:50:00,53.4,33.0,30.06,SE,135,0.0,0.0,46,0.00,,,0.00,WUHU21623XXSP,2013-05-27 16:50:00,
2013-05-27 09:58:00,54.5,34.0,30.06,SSE,157,0.0,0.0,46,0.00,,,0.00,WUHU21623XXSP,2013-05-27 16:58:00,
2013-05-27 10:16:00,56.3,34.0,30.06,NE,45,0.0,0.0,43,0.00,,,0.00,WUHU21623XXSP,2013-05-27 17:16:00,
2013-05-27 10:31:00,58.3,31.9,30.05,NNE,22,0.0,0.0,37,0.00,,,0.00,WUHU21623XXSP,2013-05-27 17:31:00,
2013-05-27 10:50:00,60.8,33.4,30.05,ESE,112,0.0,0.0,36,0.00,,,0.00,WUHU21623XXSP,2013-05-27 17:50:00,
2013-05-27 11:05:00,62.8,35.2,30.04,SW,225,8.5,8.5,36,0.00,,,0.00,WUHU21623XXSP,2013-05-27 18:05:00,
2013-05-27 11:11:00,63.5,34.4,30.04,South,180,3.1,8.5,34,0.00,,,0.00,WUHU21623XXSP,2013-05-27 18:11:00,
2013-05-27 11:18:00,64.2,35.1,30.04,SE,135,1.3,3.1,34,0.00,,,0.00,WUHU21623XXSP,2013-05-27 18:18:00,
2013-05-27 11:26:00,64.9,35.0,30.04,SSE,157,4.9,4.9,32,0.00,,,0.00,WUHU21623XXSP,2013-05-27 18:26:00,
2013-05-27 11:35:00,65.8,34.8,30.04,SSE,157,2.2,4.9,32,0.00,,,0.00,WUHU21623XXSP,2013-05-27 18:35:00,
2013-05-27 11:40:00,66.0,35.3,30.04,SSE,157,2.2,2.2,32,0.00,,,0.00,WUHU21623XXSP,2013-05-27 18:40:00,
2013-05-27 11:45:00,66.0,35.3,30.04,South,180,8.1,8.1,32,0.00,,,0.00,WUHU21623XXSP,2013-05-27 18:45:00,
2013-05-27 11:52:00,66.4,35.6,30.04,NNW,337,1.1,8.1,32,0.00,,,0.00,WUHU21623XXSP,2013-05-27 18:52:00,
2013-05-27 12:05:00,66.2,36.1,30.04,WNW,292,6.3,6.3,33,0.00,,,0.00,WUHU21623XXSP,2013-05-27 19:05:00,
2013-05-27 12:13:00,67.3,37.0,30.04,WNW,292,1.1,6.3,33,0.00,,,0.00,WUHU21623XXSP,2013-05-27 19:13:00,
2013-05-27 12:18:00,67.8,37.5,30.04,WSW,247,5.1,5.1,32,0.00,,,0.00,WUHU21623XXSP,2013-05-27 19:18:00,
2013-05-27 12:29:00,68.7,37.5,30.05,WSW,247,11.0,11.0,32,0.00,,,0.00,WUHU21623XXSP,2013-05-27 19:29:00,
2013-05-27 12:34:00,68.4,37.2,30.06,WNW,292,5.1,11.0,32,0.00,,,0.00,WUHU21623XXSP,2013-05-27 19:34:00,
2013-05-27 12:39:00,68.2,37.1,30.06,West,270,0.0,5.1,32,0.00,,,0.00,WUHU21623XXSP,2013-05-27 19:39:00,
2013-05-27 12:45:00,67.6,36.6,30.05,SW,225,12.1,12.1,32,0.00,,,0.00,WUHU21623XXSP,2013-05-27 19:45:00,
2013-05-27 12:50:00,67.1,36.9,30.06,SSE,157,0.0,12.1,33,0.00,,,0.00,WUHU21623XXSP,2013-05-27 19:50:00,
2013-05-27 12:55:00,66.0,36.4,30.06,South,180,2.9,2.9,33,0.00,,,0.00,WUHU21623XXSP,2013-05-27 19:55:00,
2013-05-27 13:01:00,65.8,36.5,30.06,West,270,8.5,8.5,34,0.00,,,0.00,WUHU21623XXSP,2013-05-27 20:01:00,
2013-05-27 13:06:00,64.6,36.1,30.06,WSW,247,2.5,8.5,35,0.00,,,0.00,WUHU21623XXSP,2013-05-27 20:06:00,
2013-05-27 13:15:00,64.0,35.6,30.06,West,270,2.7,4.5,35,0.00,,,0.00,WUHU21623XXSP,2013-05-27 20:15:00,
2013-05-27 13:21:00,64.0,36.4,30.07,South,180,8.1,8.1,36,0.00,,,0.00,WUHU21623XXSP,2013-05-27 20:21:00,
2013-05-27 13:25:00,63.1,36.6,30.07,SSW,202,0.0,8.1,37,0.00,,,0.00,WUHU21623XXSP,2013-05-27 20:25:00,
2013-05-27 13:30:00,62.4,35.6,30.07,WNW,292,4.5,4.5,37,0.00,,,0.00,WUHU21623XXSP,2013-05-27 20:30:00,
2013-05-27 13:36:00,62.1,36.0,30.08,ESE,112,0.0,4.5,38,0.00,,,0.00,WUHU21623XXSP,2013-05-27 20:36:00,
2013-05-27 13:43:00,61.0,36.5,30.08,SSW,202,4.7,4.7,40,0.00,,,0.00,WUHU21623XXSP,2013-05-27 20:43:00,
2013-05-27 13:56:00,58.8,36.3,30.09,South,180,3.1,3.1,43,0.00,,,0.00,WUHU21623XXSP,2013-05-27 20:56:00,
2013-05-27 14:03:00,58.3,36.4,30.09,SSE,157,4.5,4.5,44,0.00,,,0.00,WUHU21623XXSP,2013-05-27 21:03:00,
2013-05-27 14:15:00,57.4,36.1,30.09,SSE,157,0.0,0.0,45,0.00,,,0.00,WUHU21623XXSP,2013-05-27 21:15:00,
2013-05-27 14:26:00,56.5,35.3,30.09,SSW,202,4.3,4.3,45,0.00,,,0.00,WUHU21623XXSP,2013-05-27 21:26:00,
2013-05-27 14:31:00,56.5,35.3,30.09,South,180,4.7,4.7,45,0.00,,,0.00,WUHU21623XXSP,2013-05-27 21:31:00,
2013-05-27 14:36:00,56.3,35.1,30.09,South,180,0.0,4.7,45,0.00,,,0.00,WUHU21623XXSP,2013-05-27 21:36:00,
2013-05-27 14:43:00,56.1,35.5,30.08,SSE,157,1.6,1.6,46,0.00,,,0.00,WUHU21623XXSP,2013-05-27 21:43:00,
2013-05-27 14:54:00,56.3,35.7,30.08,South,180,0.0,0.0,46,0.00,,,0.00,WUHU21623XXSP,2013-05-27 21:54:00,
2013-05-27 15:02:00,56.5,35.8,30.07,WNW,292,0.0,0.0,46,0.00,,,0.00,WUHU21623XXSP,2013-05-27 22:02:00,
2013-05-27 15:08:00,56.7,36.0,30.08,NNE,22,0.0,0.0,46,0.00,,,0.00,WUHU21623XXSP,2013-05-27 22:08:00,
2013-05-27 15:17:00,57.4,36.7,30.07,NW,315,0.9,0.9,46,0.00,,,0.00,WUHU21623XXSP,2013-05-27 22:17:00,
2013-05-27 15:23:00,57.6,36.9,30.07,ESE,112,0.0,0.9,46,0.00,,,0.00,WUHU21623XXSP,2013-05-27 22:23:00,
2013-05-27 15:28:00,57.7,37.0,30.07,WNW,292,0.0,0.0,45,0.00,,,0.00,WUHU21623XXSP,2013-05-27 22:28:00,
2013-05-27 15:33:00,57.9,36.6,30.07,South,180,1.1,1.1,45,0.00,,,0.00,WUHU21623XXSP,2013-05-27 22:33:00,
2013-05-27 15:39:00,57.9,36.6,30.07,South,180,3.1,3.1,45,0.00,,,0.00,WUHU21623XXSP,2013-05-27 22:39:00,
2013-05-27 15:44:00,58.1,36.8,30.07,SSW,202,6.9,6.9,45,0.00,,,0.00,WUHU21623XXSP,2013-05-27 22:44:00,
2013-05-27 15:50:00,58.3,36.9,30.07,South,180,0.0,6.9,45,0.00,,,0.00,WUHU21623XXSP,2013-05-27 22:50:00,
2013-05-27 15:55:00,58.3,36.9,30.07,WSW,247,6.0,6.9,45,0.00,,,0.00,WUHU21623XXSP,2013-05-27 22:55:00,
2013-05-27 16:00:00,58.3,36.9,30.06,SSE,157,10.7,10.7,45,0.00,,,0.00,WUHU21623XXSP,2013-05-27 23:00:00,
2013-05-27 16:09:00,58.5,37.1,30.06,SSE,157,2.5,7.4,45,0.00,,,0.00,WUHU21623XXSP,2013-05-27 23:09:00,
2013-05-27 16:15:00,58.3,37.5,30.05,WNW,292,4.3,4.3,46,0.00,,,0.00,WUHU21623XXSP,2013-05-27 23:15:00,
2013-05-27 16:20:00,58.5,37.5,30.06,NE,45,0.0,4.3,46,0.00,,,0.00,WUHU21623XXSP,2013-05-27 23:20:00,
2013-05-27 16:25:00,58.6,37.8,30.06,SSW,202,1.8,1.8,46,0.00,,,0.00,WUHU21623XXSP,2013-05-27 23:25:00,
2013-05-27 16:30:00,58.8,38.0,30.06,West,270,1.8,1.8,46,0.00,,,0.00,WUHU21623XXSP,2013-05-27 23:30:00,
2013-05-27 16:35:00,59.2,37.7,30.06,ESE,112,0.0,1.8,45,0.00,,,0.00,WUHU21623XXSP,2013-05-27 23:35:00,
2013-05-27 16:40:00,59.5,38.1,30.05,WSW,247,4.7,4.7,45,0.00,,,0.00,WUHU21623XXSP,2013-05-27 23:40:00,
2013-05-27 16:50:00,59.9,38.4,30.05,West,270,0.0,4.7,45,0.00,,,0.00,WUHU21623XXSP,2013-05-27 23:50:00,
2013-05-27 16:55:00,59.9,37.8,30.05,SSW,202,0.0,0.0,44,0.00,,,0.00,WUHU21623XXSP,2013-05-27 23:55:00,
2013-05-27 17:00:00,59.9,37.8,30.05,SE,135,5.1,5.1,44,0.00,,,0.00,WUHU21623XXSP,2013-05-28 00:00:00,
2013-05-27 17:05:00,59.7,37.7,30.05,West,270,0.0,5.1,44,0.00,,,0.00,WUHU21623XXSP,2013-05-28 00:05:00,
2013-05-27 17:17:00,59.5,38.1,30.06,South,180,0.0,0.0,45,0.00,,,0.00,WUHU21623XXSP,2013-05-28 00:17:00,
2013-05-27 17:28:00,59.4,37.9,30.05,South,180,0.0,0.0,45,0.00,,,0.00,WUHU21623XXSP,2013-05-28 00:28:00,
2013-05-27 17:35:00,59.0,38.3,30.05,South,180,6.7,6.7,46,0.00,,,0.00,WUHU21623XXSP,2013-05-28 00:35:00,
2013-05-27 17:40:00,59.0,38.2,30.05,SSE,157,1.1,6.7,46,0.00,,,0.00,WUHU21623XXSP,2013-05-28 00:40:00,
2013-05-27 17:45:00,58.8,38.0,30.05,SE,135,0.0,1.1,46,0.00,,,0.00,WUHU21623XXSP,2013-05-28 00:45:00,
2013-05-27 17:50:00,58.6,37.8,30.05,WNW,292,0.0,3.6,46,0.00,,,0.00,WUHU21623XXSP,2013-05-28 00:50:00,
2013-05-27 17:55:00,58.6,38.4,30.05,WNW,292,0.0,3.6,47,0.00,,,0.00,WUHU21623XXSP,2013-05-28 00:55:00,
2013-05-27 18:00:00,58.6,38.4,30.05,North,0,0.0,0.0,47,0.00,,,0.00,WUHU21623XXSP,2013-05-28 01:00:00,
2013-05-27 18:05:00,58.8,38.6,30.05,SE,135,1.8,1.8,47,0.00,,,0.00,WUHU21623XXSP,2013-05-28 01:05:00,
2013-05-27 18:10:00,58.8,38.6,30.05,WSW,247,0.0,1.8,47,0.00,,,0.00,WUHU21623XXSP,2013-05-28 01:10:00,
2013-05-27 18:15:00,58.8,38.0,30.05,SSE,157,0.0,0.0,46,0.00,,,0.00,WUHU21623XXSP,2013-05-28 01:15:00,
2013-05-27 18:20:00,58.8,38.0,30.05,West,270,2.5,2.5,46,0.00,,,0.00,WUHU21623XXSP,2013-05-28 01:20:00,
2013-05-27 18:28:00,58.8,38.0,30.05,South,180,5.4,5.4,46,0.00,,,0.00,WUHU21623XXSP,2013-05-28 01:28:00,
2013-05-27 18:33:00,58.8,38.0,30.04,SSE,157,6.7,6.7,46,0.00,,,0.00,WUHU21623XXSP,2013-05-28 01:33:00,
2013-05-27 18:38:00,58.6,37.8,30.04,SSE,157,8.3,8.3,46,0.00,,,0.00,WUHU21623XXSP,2013-05-28 01:38:00,
2013-05-27 18:52:00,58.1,37.9,30.04,South,180,0.0,0.0,47,0.00,,,0.00,WUHU21623XXSP,2013-05-28 01:52:00,
2013-05-27 19:00:00,57.7,37.6,30.05,SSE,157,0.0,0.0,47,0.00,,,0.00,WUHU21623XXSP,2013-05-28 02:00:00,
2013-05-27 19:07:00,57.7,37.6,30.05,SSE,157,0.0,0.0,47,0.00,,,0.00,WUHU21623XXSP,2013-05-28 02:07:00,
2013-05-27 19:12:00,57.6,38.0,30.05,SSE,157,0.0,0.0,48,0.00,,,0.00,WUHU21623XXSP,2013-05-28 02:12:00,
2013-05-27 19:17:00,57.4,38.0,30.05,SSE,157,0.0,0.0,48,0.00,,,0.00,WUHU21623XXSP,2013-05-28 02:17:00,
2013-05-27 19:22:00,57.4,37.9,30.04,South,180,4.5,4.5,48,0.00,,,0.00,WUHU21623XXSP,2013-05-28 02:22:00,
2013-05-27 19:27:00,57.4,37.9,30.05,South,180,4.5,4.5,48,0.00,,,0.00,WUHU21623XXSP,2013-05-28 02:27:00,
2013-05-27 19:32:00,57.4,37.9,30.04,WSW,247,2.0,4.5,48,0.00,,,0.00,WUHU21623XXSP,2013-05-28 02:32:00,
2013-05-27 19:37:00,57.0,37.5,30.04,SW,225,5.1,5.1,48,0.00,,,0.00,WUHU21623XXSP,2013-05-28 02:37:00,
2013-05-27 19:45:00,57.0,37.5,30.04,SSE,157,0.0,0.0,48,0.00,,,0.00,WUHU21623XXSP,2013-05-28 02:45:00,
2013-05-27 19:50:00,56.8,37.3,30.04,South,180,7.2,7.2,48,0.00,,,0.00,WUHU21623XXSP,2013-05-28 02:50:00,
2013-05-27 19:58:00,56.8,37.9,30.04,NNW,337,0.0,7.2,49,0.00,,,0.00,WUHU21623XXSP,2013-05-28 02:58:00,
2013-05-27 20:03:00,56.8,37.9,30.04,SSW,202,3.8,3.8,49,0.00,,,0.00,WUHU21623XXSP,2013-05-28 03:03:00,
2013-05-27 20:11:00,56.8,37.9,30.03,West,270,0.0,3.8,49,0.00,,,0.00,WUHU21623XXSP,2013-05-28 03:11:00,
2013-05-27 20:22:00,56.5,38.1,30.03,East,90,0.0,0.0,50,0.00,,,0.00,WUHU21623XXSP,2013-05-28 03:22:00,
2013-05-27 20:27:00,56.5,38.1,30.03,SSE,157,0.0,0.0,50,0.00,,,0.00,WUHU21623XXSP,2013-05-28 03:27:00,
2013-05-27 20:32:00,56.3,37.9,30.03,SSE,157,2.5,2.5,50,0.00,,,0.00,WUHU21623XXSP,2013-05-28 03:32:00,
2013-05-27 20:49:00,55.8,37.9,30.02,South,180,0.7,0.7,51,0.00,,,0.00,WUHU21623XXSP,2013-05-28 03:49:00,
2013-05-27 21:00:00,55.4,37.5,30.02,SW,225,8.5,8.5,51,0.00,,,0.00,WUHU21623XXSP,2013-05-28 04:00:00,
2013-05-27 21:01:00,55.4,37.5,30.02,SW,225,8.5,8.5,51,0.00,,,0.00,WUHU21623XXSP,2013-05-28 04:01:00,
2013-05-27 21:06:00,55.2,37.3,30.02,South,180,5.1,8.5,51,0.00,,,0.00,WUHU21623XXSP,2013-05-28 04:06:00,
2013-05-27 21:13:00,55.2,37.3,30.03,SSE,157,2.2,5.1,51,0.00,,,0.00,WUHU21623XXSP,2013-05-28 04:13:00,
2013-05-27 21:18:00,55.2,37.3,30.03,SSW,202,2.9,2.9,51,0.00,,,0.00,WUHU21623XXSP,2013-05-28 04:18:00,
2013-05-27 21:30:00,55.2,37.3,30.01,SSW,202,0.0,0.0,51,0.00,,,0.00,WUHU21623XXSP,2013-05-28 04:30:00,
2013-05-27 21:35:00,55.2,37.3,30.01,WNW,292,0.0,0.0,51,0.00,,,0.00,WUHU21623XXSP,2013-05-28 04:35:00,
2013-05-27 21:40:00,55.2,37.3,30.01,WSW,247,0.0,0.0,51,0.00,,,0.00,WUHU21623XXSP,2013-05-28 04:40:00,
2013-05-27 21:45:00,55.2,37.3,30.01,WNW,292,2.9,2.9,51,0.00,,,0.00,WUHU21623XXSP,2013-05-28 04:45:00,
2013-05-27 21:50:00,55.2,37.3,30.02,West,270,0.0,2.9,51,0.00,,,0.00,WUHU21623XXSP,2013-05-28 04:50:00,
2013-05-27 21:58:00,55.4,37.5,30.01,WNW,292,0.0,0.0,51,0.00,,,0.00,WUHU21623XXSP,2013-05-28 04:58:00,
2013-05-27 22:03:00,55.4,38.0,30.01,WNW,292,0.0,0.0,52,0.00,,,0.00,WUHU21623XXSP,2013-05-28 05:03:00,
2013-05-27 22:11:00,55.6,37.7,30.02,WNW,292,0.0,0.0,51,0.00,,,0.00,WUHU21623XXSP,2013-05-28 05:11:00,
2013-05-27 22:18:00,55.4,37.5,30.02,WNW,292,0.0,0.0,51,0.00,,,0.00,WUHU21623XXSP,2013-05-28 05:18:00,
2013-05-27 22:30:00,55.6,37.7,30.01,WNW,292,0.0,0.0,51,0.00,,,0.00,WUHU21623XXSP,2013-05-28 05:30:00,
2013-05-27 22:36:00,55.4,37.5,30.01,North,0,0.0,0.0,51,0.00,,,0.00,WUHU21623XXSP,2013-05-28 05:36:00,
2013-05-27 22:43:00,55.6,37.7,30.01,WNW,292,0.0,0.0,51,0.00,,,0.00,WUHU21623XXSP,2013-05-28 05:43:00,
2013-05-27 22:58:00,55.2,37.3,30.01,NW,315,0.0,0.0,51,0.00,,,0.00,WUHU21623XXSP,2013-05-28 05:58:00,
2013-05-27 23:03:00,55.2,37.3,30.01,NW,315,0.0,0.0,51,0.00,,,0.00,WUHU21623XXSP,2013-05-28 06:03:00,
2013-05-27 23:15:00,55.2,38.8,30.00,West,270,0.0,0.0,54,0.00,,,0.00,WUHU21623XXSP,2013-05-28 06:15:00,
2013-05-27 23:20:00,55.2,39.2,30.01,WNW,292,0.0,0.0,55,0.00,,,0.00,WUHU21623XXSP,2013-05-28 06:20:00,
2013-05-27 23:26:00,55.0,39.1,30.00,WNW,292,0.0,0.0,55,0.00,,,0.00,WUHU21623XXSP,2013-05-28 06:26:00,
2013-05-27 23:36:00,54.7,39.2,30.00,WNW,292,2.2,2.2,56,0.00,,,0.00,WUHU21623XXSP,2013-05-28 06:36:00,
2013-05-27 23:41:00,54.7,39.2,30.00,WNW,292,2.2,2.2,56,0.00,,,0.00,WUHU21623XXSP,2013-05-28 06:41:00,
2013-05-27 23:49:00,54.5,39.0,29.99,WNW,292,0.0,0.0,56,0.00,,,0.00,WUHU21623XXSP,2013-05-28 06:49:00,
2013-05-27 23:54:00,54.3,39.3,29.99,SE,135,0.0,0.0,57,0.00,,,0.00,WUHU21623XXSP,2013-05-28 06:54:00,
2013-05-27 23:59:00,54.3,39.3,29.99,WNW,292,0.0,0.0,57,0.00,,,0.00,WUHU21623XXSP,2013-05-28 06:59:00,